Regional Weather Roundup
Issued by NWS

Home | Current Version | Previous Version | Graphics & Text | Print | Product List | Glossary On
Versions: 1 2 3 4 5 6 7 8 9 10 11 12 13 14 15 16 17 18 19 20 21 22 23 24 25 26 27 28 29 30 31 32 33 34 35 36 37 38 39 40 41 42 43 44 45 46 47 48 49 50
000
ASUS45 KABQ 260301
RWRNM
NEW MEXICO REGIONAL WEATHER ROUNDUP
NATIONAL WEATHER SERVICE ALBUQUERQUE NM
900 PM MDT MON JUL 25 2016

NOTE: "FAIR" MEANS FEW OR NO CLOUDS BELOW 12,000 FEET AGL WITH NO
       SIGNIFICANT WEATHER OR OBSTRUCTIONS TO VISION.

      THIS PRODUCT IS RELEASED AS TWO VERSIONS.  ONE VERSION NEAR
      THE TOP OF THE HOUR CONTAINING PRELIMINARY DATA FROM ALBUQUERQUE
      AND OTHER STATIONS.  A FINAL VERSION WITH ADDITIONAL DATA IS
      ISSUED ABOUT 10 MINUTES AFTER THE HOUR.

NMZ501-503-504-510>518-260400-
NORTHWEST PLATEAU/NORTHCENTRAL MOUNTAINS

CITY           SKY/WX    TMP DP  RH WIND       PRES   REMARKS
FARMINGTON     FAIR      75  54  47 E6        30.17S
LOS ALAMOS     FAIR      71  49  46 SW5       30.35S
SANTA FE       FAIR      68  59  73 N3        30.27S
TAOS           FAIR      66  37  34 E9        30.36R
ANGEL FIRE     FAIR      52  49  89 CALM      30.48R

$$
NMZ402-403-502-505>509-260400-
WESTCENTRAL MOUNTAINS/SOUTHWEST MOUNTAINS

CITY           SKY/WX    TMP DP  RH WIND       PRES   REMARKS
GALLUP         CLOUDY    72  51  47 S7        30.24F
GRANTS         FAIR      70  54  57 CALM      30.32R
SILVER CITY    FAIR      80  51  36 N8        30.15R

$$
NMZ407-409-411-412-260400-
SOUTHERN DESERTS

CITY           SKY/WX    TMP DP  RH WIND       PRES   REMARKS
LORDSBURG      FAIR      88  50  27 NW10      30.04R
DEMING         FAIR      88  43  20 E6        30.03R
LAS CRUCES     FAIR      89  42  19 SE5       30.06R
HOLLOMAN AFB   FAIR      83  63  49 NE8       30.01R
ALAMOGORDO     FAIR      84  54  34 E9        30.04R
T OR C         FAIR      87  47  24 S9        30.10R

$$
NMZ519>523-260400-
CENTRAL VALLEYS/CENTRAL HIGHLANDS

CITY           SKY/WX    TMP DP  RH WIND       PRES   REMARKS
ALBUQUERQUE    MOCLDY    80  52  37 N5        30.22R
DOUBLE EAGLE   LGT RAIN  68  59  73 NW20G26   30.25S
MORIARTY ARPT  FAIR      71  51  49 NE12      30.29R
CLINES CORNERS FAIR      65  53  65 NE13      30.35R
BELEN          FAIR      78  51  39 NW9G17    30.18R
SOCORRO        FAIR      85  48  27 NW12      30.13R

$$
NMZ524>526-539-540-260400-
SOUTHCENTRAL MOUNTAINS

CITY           SKY/WX    TMP DP  RH WIND       PRES   REMARKS
RUIDOSO          N/A     75  48  38 SE7       30.32R

$$
NMZ527>531-260400-
NORTHEAST HIGHLANDS/NORTHEAST PLAINS

CITY           SKY/WX    TMP DP  RH WIND       PRES   REMARKS
LAS VEGAS      MOCLDY    68  50  52 E9        30.35R
RATON          FAIR      64  54  69 N10       30.32R
CLAYTON        LGT RAIN  68  65  90 SE10      30.21S

$$
NMZ532>537-260400-
EASTCENTRAL PLAINS

CITY           SKY/WX    TMP DP  RH WIND       PRES   REMARKS
TUCUMCARI      TSTM      69  65  86 NW12      30.22R FOG
CANNON AFB     TSTM      73  58  60 S15       30.20R
CLOVIS AIRPORT MOCLDY    75  57  53 W8        30.18R

$$
NMZ028-029-538-260400-
SOUTHEAST PLAINS

CITY           SKY/WX    TMP DP  RH WIND       PRES   REMARKS
ROSWELL        MOCLDY    84  61  45 E25G35    30.05R
ARTESIA        FAIR      90  59  35 SE5       30.02R
CARLSBAD       FAIR      92  53  26 SE5       29.98R
HOBBS          FAIR      86  50  28 E10       30.06R


$$




USA.gov is the U.S. government's official web portal to all federal, state and local government web resources and services.